Weather History for KMEI - November, 2013

Change the Weather History Date:

Friday, November 22, 2013

  Actual Average Record
Temperature  
Mean Temperature 64 °F 53 °F  
Max Temperature 67 °F 66 °F 83 °F (1973)
Min Temperature 60 °F 40 °F 20 °F (2008)
Degree Days  
Heating Degree Days 1 13  
Month to date heating degree days 225 215  
Since 1 July heating degree days 313 339  
Cooling Degree Days 0 0  
Month to date cooling degree days 5 13  
Year to date cooling degree days 2041 2026  
Growing Degree Days 13 (Base 50)    
Moisture  
Dew Point 61 °F    
Average Humidity 92    
Maximum Humidity 100    
Minimum Humidity 84    
Precipitation  
Precipitation 0.08 in 0.17 in 2.06 in (1916)
Month to date precipitation 1.60 3.49  
Year to date precipitation 56.75 49.64  
Sea Level Pressure  
Sea Level Pressure 30.22 in    
Wind  
Wind Speed 4 mph (NNE)    
Max Wind Speed 9 mph    
Max Gust Speed 13 mph    
Visibility 8 miles    
Events Rain    
T = Trace of Precipitation, MM = Missing Value Source: NWS Daily Summary

Daily Weather History Graph

Daily Weather History Graph

Search for Another Location

Airport or City:

Trip Planner

Search our weather history database for the weather conditions in past years. The results will help you decide how hot, cold, wet, or windy it might be!

Date:

Astronomy

Nov. 22, 2013 Rise Set
Actual Time 6:30 AM CST 4:51 PM CST
Civil Twilight 6:04 AM CST 5:17 PM CST
Nautical Twilight 5:34 AM CST 5:47 PM CST
Astronomical Twilight 5:05 AM CST 6:17 PM CST
Moon 9:18 PM CST (11/22) 10:17 AM CST (11/22)
Length of Visible Light 11h 13m
Length of Day
10h 20m
Waning Gibbous, 78% of the Moon is Illuminated
Nov 22
Waning Gibbous
Nov 25
Last Quarter
Dec 2
New
Dec 9
First Quarter
Dec 17
Full

Hourly Weather History & Observations

Time (CST) Temp. Dew Point Humidity Pressure Visibility Wind Dir Wind Speed Gust Speed Precip Events Conditions
12:58 AM 61.0 °F 59.0 °F 93% 30.23 in 10.0 mi Calm Calm - N/A   Overcast
1:58 AM 60.1 °F 57.9 °F 93% 30.22 in 10.0 mi NNW 3.5 mph - N/A   Overcast
2:58 AM 62.1 °F 57.9 °F 86% 30.22 in 10.0 mi Calm Calm - N/A   Overcast
3:58 AM 61.0 °F 57.9 °F 90% 30.21 in 10.0 mi Calm Calm - N/A   Overcast
4:58 AM 61.0 °F 57.9 °F 90% 30.22 in 10.0 mi Calm Calm - N/A   Overcast
5:41 AM 60.8 °F 57.2 °F 88% 30.21 in 10.0 mi Calm Calm - N/A   Overcast
5:58 AM 61.0 °F 57.0 °F 87% 30.21 in 10.0 mi SE 5.8 mph - N/A   Overcast
6:58 AM 61.0 °F 57.9 °F 90% 30.22 in 10.0 mi SE 4.6 mph - N/A   Mostly Cloudy
7:29 AM 60.8 °F 57.2 °F 88% 30.22 in 10.0 mi SE 3.5 mph - N/A   Scattered Clouds
7:49 AM 62.6 °F 57.2 °F 82% 30.24 in 10.0 mi SE 4.6 mph - N/A   Mostly Cloudy
7:58 AM 63.0 °F 59.0 °F 87% 30.23 in 10.0 mi SE 5.8 mph - N/A   Mostly Cloudy
8:23 AM 62.6 °F 59.0 °F 88% 30.24 in 10.0 mi Variable 3.5 mph - N/A   Overcast
8:58 AM 64.9 °F 60.1 °F 84% 30.25 in 10.0 mi South 3.5 mph - N/A   Overcast
9:24 AM 64.4 °F 60.8 °F 88% 30.26 in 10.0 mi South 3.5 mph - N/A   Overcast
9:58 AM 66.9 °F 62.1 °F 84% 30.26 in 10.0 mi South 5.8 mph - N/A   Overcast
10:58 AM 64.9 °F 61.0 °F 87% 30.26 in 9.0 mi WNW 4.6 mph - N/A   Overcast
11:25 AM 64.4 °F 62.6 °F 94% 30.25 in 7.0 mi NW 6.9 mph - 0.01 in   Overcast
11:40 AM 64.4 °F 62.6 °F 94% 30.25 in 8.0 mi Variable 3.5 mph - 0.01 in Rain Light Rain
11:53 AM 64.4 °F 62.6 °F 94% 30.24 in 7.0 mi North 4.6 mph - 0.01 in Rain Light Rain
11:58 AM 64.0 °F 62.1 °F 93% 30.24 in 7.0 mi North 4.6 mph - 0.01 in Rain Light Rain
12:10 PM 64.4 °F 62.6 °F 94% 30.24 in 5.0 mi North 4.6 mph - 0.00 in Rain Light Rain
12:19 PM 64.4 °F 62.6 °F 94% 30.23 in 5.0 mi North 4.6 mph - 0.00 in Rain Light Rain
12:58 PM 64.0 °F 62.1 °F 93% 30.21 in 9.0 mi East 4.6 mph - 0.01 in Rain Light Rain
1:11 PM 64.4 °F 62.6 °F 94% 30.19 in 6.0 mi East 5.8 mph - 0.00 in Rain Light Rain
1:24 PM 64.4 °F 62.6 °F 94% 30.19 in 4.0 mi SE 5.8 mph - 0.00 in Rain Light Rain
1:58 PM 64.0 °F 63.0 °F 96% 30.19 in 4.0 mi South 3.5 mph - 0.03 in Rain Light Rain
2:58 PM 64.0 °F 62.1 °F 93% 30.20 in 8.0 mi NW 4.6 mph - 0.03 in Rain Light Rain
3:28 PM 62.6 °F 62.6 °F 100% 30.20 in 10.0 mi NW 3.5 mph - 0.00 in   Overcast
3:56 PM 64.4 °F 62.6 °F 94% 30.19 in 10.0 mi NNE 3.5 mph - 0.00 in   Mostly Cloudy
3:58 PM 64.0 °F 62.1 °F 93% 30.19 in 10.0 mi NNE 4.6 mph - 0.00 in   Scattered Clouds
4:05 PM 64.4 °F 62.6 °F 94% 30.19 in 10.0 mi North 6.9 mph - N/A   Mostly Cloudy
4:17 PM 62.6 °F 62.6 °F 100% 30.19 in 10.0 mi North 4.6 mph - N/A   Scattered Clouds
4:24 PM 62.6 °F 62.6 °F 100% 30.18 in 10.0 mi NNE 4.6 mph - N/A   Mostly Cloudy
4:58 PM 63.0 °F 62.1 °F 97% 30.17 in 10.0 mi NNE 5.8 mph - N/A   Overcast
5:58 PM 63.0 °F 61.0 °F 93% 30.19 in 10.0 mi NNE 6.9 mph - N/A   Overcast
6:58 PM 62.1 °F 61.0 °F 96% 30.22 in 3.0 mi North 3.5 mph - N/A   Overcast
7:03 PM 62.6 °F 60.8 °F 94% 30.22 in 2.5 mi NNE 3.5 mph - N/A   Overcast
7:37 PM 62.6 °F 60.8 °F 94% 30.23 in 2.5 mi North 3.5 mph - N/A   Overcast
7:58 PM 62.1 °F 61.0 °F 96% 30.23 in 2.5 mi Calm Calm - N/A   Overcast
8:33 PM 62.6 °F 60.8 °F 94% 30.24 in 2.5 mi Calm Calm - 0.01 in   Overcast
8:55 PM 62.6 °F 60.8 °F 94% 30.24 in 2.5 mi NNW 3.5 mph - 0.01 in   Overcast
8:58 PM 62.1 °F 61.0 °F 96% 30.24 in 2.5 mi NNW 3.5 mph - 0.01 in   Overcast
9:16 PM 62.6 °F 60.8 °F 94% 30.24 in 4.0 mi North 3.5 mph - N/A   Overcast
9:28 PM 62.6 °F 60.8 °F 94% 30.24 in 5.0 mi North 3.5 mph - N/A   Overcast
9:47 PM 62.6 °F 60.8 °F 94% 30.24 in 6.0 mi North 3.5 mph - N/A   Overcast
9:58 PM 62.1 °F 61.0 °F 96% 30.23 in 4.0 mi NNE 3.5 mph - N/A   Overcast
10:37 PM 62.6 °F 60.8 °F 94% 30.24 in 5.0 mi North 4.6 mph - N/A   Overcast
10:58 PM 62.1 °F 60.1 °F 93% 30.24 in 8.0 mi North 5.8 mph - N/A   Overcast
11:58 PM 61.0 °F 60.1 °F 97% 30.22 in 10.0 mi North 6.9 mph - N/A   Overcast